| time (UTC) | temp F | wind direction | speed MPH | gust MPH | rain 1hr in | rain 24hr in | rain mn in | humidity % | barometer mb |
| 20260507021849 | 44 | 72 | 0.0 | 0.0 | 0.00 | 0.38 | 0.38 | 84 | 1015.2 |
| 20260507021345 | 44 | 72 | 0.0 | 0.0 | 0.00 | 0.38 | 0.38 | 83 | 1015.0 |
| 20260507020843 | 45 | 72 | 0.0 | 0.0 | 0.00 | 0.38 | 0.38 | 83 | 1015.1 |
| 20260507020339 | 45 | 72 | 0.0 | 0.0 | 0.00 | 0.38 | 0.38 | 83 | 1015.1 |
| 20260507015836 | 45 | 72 | 0.0 | 0.0 | 0.00 | 0.38 | 0.38 | 82 | 1015.4 |
| 20260507015335 | 45 | 72 | 0.0 | 0.0 | 0.00 | 0.38 | 0.38 | 82 | 1015.3 |
| 20260507014831 | 45 | 72 | 0.0 | 0.0 | 0.00 | 0.38 | 0.38 | 81 | 1015.1 |
| 20260507014327 | 45 | 72 | 0.0 | 0.0 | 0.00 | 0.38 | 0.38 | 80 | 1015.1 |
| 20260507013824 | 45 | 72 | 0.0 | 0.0 | 0.00 | 0.38 | 0.38 | 81 | 1015.0 |
| 20260507013321 | 46 | 72 | 0.0 | 0.0 | 0.00 | 0.38 | 0.38 | 81 | 1015.0 |
| 20260507012819 | 46 | 72 | 0.0 | 0.0 | 0.00 | 0.38 | 0.38 | 80 | 1014.9 |
| 20260507012314 | 46 | 72 | 0.0 | 0.0 | 0.00 | 0.38 | 0.38 | 79 | 1014.9 |
| 20260507011812 | 46 | 72 | 0.0 | 0.0 | 0.00 | 0.38 | 0.38 | 78 | 1014.7 |
| 20260507011309 | 46 | 72 | 0.0 | 0.0 | 0.00 | 0.38 | 0.38 | 79 | 1014.8 |
| 20260507010808 | 46 | 72 | 0.0 | 0.0 | 0.00 | 0.38 | 0.38 | 78 | 1014.8 |
| 20260507010304 | 46 | 72 | 0.0 | 0.0 | 0.00 | 0.38 | 0.38 | 78 | 1014.8 |
| 20260507005802 | 46 | 72 | 0.0 | 0.0 | 0.00 | 0.38 | 0.38 | 77 | 1014.7 |
| 20260507005258 | 46 | 72 | 0.0 | 0.0 | 0.00 | 0.38 | 0.38 | 74 | 1014.7 |
| 20260507004754 | 46 | 72 | 0.0 | 0.0 | 0.00 | 0.38 | 0.38 | 73 | 1014.6 |
| 20260507004252 | 46 | 72 | 0.0 | 0.0 | 0.00 | 0.38 | 0.38 | 72 | 1014.9 |
| 20260507003748 | 47 | 72 | 0.0 | 0.0 | 0.00 | 0.38 | 0.38 | 73 | 1014.5 |
| 20260507003244 | 47 | 72 | 0.0 | 0.0 | 0.00 | 0.38 | 0.38 | 69 | 1015.0 |
| 20260507002740 | 47 | 72 | 0.0 | 0.0 | 0.00 | 0.38 | 0.38 | 71 | 1014.6 |
| 20260507002236 | 47 | 72 | 0.0 | 0.0 | 0.00 | 0.38 | 0.38 | 69 | 1014.8 |
| 20260507001733 | 47 | 71 | 0.0 | 0.0 | 0.00 | 0.38 | 0.38 | 71 | 1014.5 |
| 20260507001230 | 48 | 82 | 0.0 | 0.0 | 0.00 | 0.38 | 0.38 | 71 | 1014.8 |
| 20260507000727 | 48 | 82 | 0.0 | 0.0 | 0.00 | 0.38 | 0.38 | 69 | 1014.7 |
| 20260507000222 | 48 | 82 | 0.0 | 0.0 | 0.00 | 0.38 | 0.38 | 69 | 1014.8 |
| 20260506235719 | 48 | 82 | 0.0 | 0.0 | 0.00 | 0.38 | 0.38 | 69 | 1014.6 |
| 20260506235215 | 48 | 82 | 0.0 | 0.0 | 0.00 | 0.38 | 0.38 | 66 | 1014.8 |
| 20260506234712 | 48 | 82 | 0.0 | 0.0 | 0.00 | 0.38 | 0.38 | 66 | 1014.5 |
| 20260506234210 | 48 | 82 | 0.0 | 0.0 | 0.00 | 0.38 | 0.38 | 65 | 1014.7 |
| 20260506233707 | 49 | 140 | 0.0 | 0.0 | 0.00 | 0.38 | 0.38 | 64 | 1014.6 |
| 20260506233203 | 49 | 355 | 0.0 | 1.0 | 0.00 | 0.38 | 0.38 | 65 | 1014.9 |
| 20260506232659 | 49 | 280 | 0.0 | 0.0 | 0.00 | 0.38 | 0.38 | 65 | 1014.7 |
| 20260506232155 | 49 | 279 | 1.0 | 1.0 | 0.00 | 0.38 | 0.38 | 64 | 1014.7 |
| 20260506231652 | 49 | 332 | 2.0 | 2.0 | 0.00 | 0.38 | 0.38 | 62 | 1014.3 |
| 20260506231151 | 49 | 353 | 1.0 | 1.0 | 0.00 | 0.38 | 0.38 | 61 | 1014.5 |
| 20260506230647 | 49 | 55 | 1.0 | 1.0 | 0.00 | 0.38 | 0.38 | 63 | 1014.4 |
| 20260506230144 | 49 | 355 | 0.0 | 1.0 | 0.00 | 0.38 | 0.38 | 64 | 1014.3 |
| 20260506225640 | 50 | 321 | 3.0 | 3.0 | 0.00 | 0.38 | 0.38 | 63 | 1014.6 |
| 20260506225137 | 50 | 18 | 0.0 | 0.0 | 0.00 | 0.38 | 0.38 | 63 | 1014.6 |
| 20260506224633 | 50 | 314 | 1.0 | 1.0 | 0.00 | 0.38 | 0.38 | 61 | 1014.4 |
| 20260506224130 | 50 | 13 | 2.0 | 2.0 | 0.00 | 0.38 | 0.38 | 61 | 1014.5 |
| 20260506223626 | 50 | 19 | 0.0 | 0.0 | 0.00 | 0.38 | 0.38 | 63 | 1014.2 |
| 20260506223122 | 50 | 27 | 0.0 | 0.0 | 0.00 | 0.38 | 0.38 | 62 | 1014.4 |
| 20260506222620 | 50 | 343 | 0.0 | 1.0 | 0.00 | 0.38 | 0.38 | 63 | 1014.3 |
| 20260506222116 | 50 | 7 | 2.0 | 2.0 | 0.00 | 0.38 | 0.38 | 62 | 1014.1 |
| 20260506221614 | 50 | 12 | 2.0 | 3.0 | 0.00 | 0.38 | 0.38 | 61 | 1014.4 |
| 20260506221112 | 50 | 344 | 1.0 | 2.0 | 0.00 | 0.38 | 0.38 | 62 | 1014.2 |
| 20260506220608 | 50 | 18 | 1.0 | 1.0 | 0.00 | 0.38 | 0.38 | 62 | 1014.1 |
| 20260506215600 | 51 | 4 | 0.0 | 0.0 | 0.00 | 0.38 | 0.38 | 61 | 1014.2 |
| 20260506215055 | 51 | 16 | 1.0 | 2.0 | 0.00 | 0.38 | 0.38 | 61 | 1013.9 |
| 20260506214553 | 51 | 331 | 3.0 | 3.0 | 0.00 | 0.38 | 0.38 | 59 | 1013.8 |
| 20260506214050 | 51 | 261 | 3.0 | 2.0 | 0.00 | 0.38 | 0.38 | 59 | 1013.8 |
| 20260506213548 | 52 | 319 | 1.0 | 2.0 | 0.00 | 0.38 | 0.38 | 58 | 1013.7 |
| 20260506213045 | 52 | 307 | 3.0 | 5.0 | 0.00 | 0.38 | 0.38 | 58 | 1013.6 |
| 20260506212542 | 52 | 321 | 5.0 | 6.0 | 0.00 | 0.38 | 0.38 | 54 | 1013.5 |
| 20260506212037 | 53 | 283 | 3.0 | 3.0 | 0.00 | 0.38 | 0.38 | 55 | 1013.3 |
| 20260506211533 | 53 | 38 | 1.0 | 1.0 | 0.00 | 0.38 | 0.38 | 57 | 1013.5 |
| 20260506211030 | 53 | 119 | 1.0 | 2.0 | 0.00 | 0.38 | 0.38 | 56 | 1013.4 |
| 20260506210527 | 53 | 20 | 1.0 | 1.0 | 0.00 | 0.38 | 0.38 | 56 | 1013.6 |
| 20260506210023 | 54 | 291 | 1.0 | 2.0 | 0.00 | 0.38 | 0.38 | 53 | 1013.5 |
| 20260506205520 | 54 | 168 | 1.0 | 1.0 | 0.00 | 0.38 | 0.38 | 49 | 1013.4 |
| 20260506205015 | 54 | 336 | 2.0 | 2.0 | 0.00 | 0.38 | 0.38 | 49 | 1013.3 |
| 20260506204514 | 53 | 323 | 3.0 | 3.0 | 0.00 | 0.38 | 0.38 | 46 | 1013.5 |
| 20260506204010 | 54 | 264 | 5.0 | 6.0 | 0.00 | 0.38 | 0.38 | 47 | 1013.3 |
| 20260506203508 | 54 | 315 | 5.0 | 6.0 | 0.00 | 0.38 | 0.38 | 48 | 1013.4 |
| 20260506203004 | 54 | 247 | 3.0 | 3.0 | 0.00 | 0.38 | 0.38 | 50 | 1013.6 |
| 20260506202502 | 54 | 344 | 1.0 | 2.0 | 0.00 | 0.38 | 0.38 | 46 | 1013.4 |
| 20260506201958 | 53 | 9 | 2.0 | 2.0 | 0.00 | 0.38 | 0.38 | 49 | 1013.2 |
| 20260506201456 | 53 | 359 | 1.0 | 1.0 | 0.00 | 0.38 | 0.38 | 50 | 1013.2 |
| 20260506200952 | 53 | 284 | 2.0 | 2.0 | 0.00 | 0.38 | 0.38 | 46 | 1013.2 |
| 20260506200449 | 53 | 311 | 5.0 | 6.0 | 0.00 | 0.38 | 0.38 | 44 | 1013.6 |
| 20260506195945 | 53 | 244 | 2.0 | 2.0 | 0.00 | 0.38 | 0.38 | 47 | 1013.5 |
| 20260506195442 | 53 | 319 | 1.0 | 1.0 | 0.00 | 0.38 | 0.38 | 47 | 1013.3 |
| 20260506194939 | 53 | 59 | 3.0 | 5.0 | 0.00 | 0.38 | 0.38 | 46 | 1013.7 |
| 20260506194436 | 54 | 311 | 3.0 | 5.0 | 0.00 | 0.38 | 0.38 | 47 | 1013.7 |
| 20260506193933 | 54 | 296 | 6.0 | 7.0 | 0.00 | 0.38 | 0.38 | 43 | 1013.5 |
| 20260506193430 | 55 | 40 | 1.0 | 1.0 | 0.00 | 0.38 | 0.38 | 49 | 1013.3 |
| 20260506192926 | 55 | 27 | 3.0 | 3.0 | 0.00 | 0.38 | 0.38 | 53 | 1013.2 |
| 20260506192424 | 55 | 20 | 1.0 | 1.0 | 0.00 | 0.38 | 0.38 | 51 | 1013.2 |
| 20260506191920 | 55 | 7 | 2.0 | 3.0 | 0.00 | 0.38 | 0.38 | 53 | 1013.5 |
| 20260506191417 | 55 | 347 | 4.0 | 5.0 | 0.00 | 0.38 | 0.38 | 53 | 1013.7 |
| 20260506190914 | 55 | 220 | 1.0 | 2.0 | 0.00 | 0.38 | 0.38 | 53 | 1013.5 |
| 20260506190410 | 54 | 295 | 2.0 | 3.0 | 0.00 | 0.38 | 0.38 | 58 | 1013.5 |
| 20260506185907 | 54 | 23 | 2.0 | 2.0 | 0.00 | 0.38 | 0.38 | 54 | 1013.6 |
| 20260506185404 | 55 | 264 | 3.0 | 3.0 | 0.00 | 0.38 | 0.38 | 52 | 1013.4 |
| 20260506184901 | 55 | 33 | 3.0 | 6.0 | 0.00 | 0.38 | 0.38 | 50 | 1013.7 |
| 20260506184358 | 56 | 300 | 1.0 | 2.0 | 0.00 | 0.38 | 0.38 | 55 | 1013.7 |
| 20260506183855 | 56 | 114 | 0.0 | 0.0 | 0.00 | 0.38 | 0.38 | 53 | 1013.6 |
| 20260506183350 | 56 | 20 | 1.0 | 5.0 | 0.00 | 0.38 | 0.38 | 51 | 1013.6 |
| 20260506182848 | 55 | 319 | 5.0 | 7.0 | 0.00 | 0.38 | 0.38 | 51 | 1013.4 |
| 20260506182345 | 55 | 90 | 3.0 | 3.0 | 0.00 | 0.38 | 0.38 | 57 | 1013.4 |
| 20260506181842 | 54 | 0 | 3.0 | 3.0 | 0.00 | 0.38 | 0.38 | 52 | 1013.5 |
| 20260506181340 | 55 | 346 | 3.0 | 2.0 | 0.00 | 0.38 | 0.38 | 52 | 1013.6 |
| 20260506180837 | 54 | 318 | 8.0 | 10.0 | 0.00 | 0.38 | 0.38 | 52 | 1013.8 |
| 20260506180333 | 55 | 34 | 2.0 | 5.0 | 0.00 | 0.38 | 0.38 | 56 | 1013.4 |
| 20260506175829 | 54 | 340 | 3.0 | 3.0 | 0.00 | 0.38 | 0.38 | 57 | 1013.5 |
| 20260506175327 | 54 | 299 | 4.0 | 6.0 | 0.00 | 0.38 | 0.38 | 55 | 1013.8 |
| 20260506174824 | 55 | 18 | 7.0 | 7.0 | 0.00 | 0.38 | 0.38 | 53 | 1013.8 |
| 20260506174321 | 55 | 145 | 3.0 | 5.0 | 0.00 | 0.38 | 0.38 | 57 | 1013.6 |
| 20260506173819 | 54 | 286 | 3.0 | 3.0 | 0.00 | 0.38 | 0.38 | 54 | 1013.4 |
| 20260506173315 | 54 | 48 | 3.0 | 3.0 | 0.00 | 0.38 | 0.38 | 57 | 1013.3 |
| 20260506172812 | 54 | 279 | 5.0 | 6.0 | 0.00 | 0.38 | 0.38 | 53 | 1013.4 |
| 20260506172309 | 54 | 347 | 7.0 | 9.0 | 0.00 | 0.38 | 0.38 | 55 | 1013.3 |
| 20260506171806 | 54 | 357 | 3.0 | 5.0 | 0.00 | 0.38 | 0.38 | 57 | 1013.4 |
| 20260506171303 | 54 | 20 | 2.0 | 2.0 | 0.00 | 0.38 | 0.38 | 60 | 1013.6 |
| 20260506170801 | 54 | 10 | 3.0 | 3.0 | 0.00 | 0.38 | 0.38 | 53 | 1013.5 |
| 20260506170257 | 55 | 294 | 5.0 | 6.0 | 0.00 | 0.38 | 0.38 | 56 | 1013.5 |
| 20260506165756 | 56 | 19 | 5.0 | 6.0 | 0.00 | 0.38 | 0.38 | 51 | 1013.4 |
| 20260506165253 | 56 | 335 | 2.0 | 2.0 | 0.00 | 0.38 | 0.38 | 57 | 1013.3 |
| 20260506164750 | 56 | 9 | 6.0 | 7.0 | 0.00 | 0.38 | 0.38 | 53 | 1013.3 |
| 20260506164246 | 56 | 342 | 3.0 | 3.0 | 0.00 | 0.38 | 0.38 | 57 | 1013.4 |
| 20260506163743 | 56 | 20 | 3.0 | 5.0 | 0.00 | 0.38 | 0.38 | 58 | 1013.2 |
| 20260506163238 | 55 | 18 | 2.0 | 2.0 | 0.00 | 0.38 | 0.38 | 57 | 1013.2 |
| 20260506162734 | 54 | 31 | 2.0 | 2.0 | 0.00 | 0.38 | 0.38 | 61 | 1013.0 |
| 20260506162232 | 54 | 13 | 2.0 | 2.0 | 0.00 | 0.38 | 0.38 | 61 | 1012.9 |
| 20260506161729 | 53 | 26 | 4.0 | 6.0 | 0.00 | 0.38 | 0.38 | 54 | 1012.7 |
| 20260506161226 | 54 | 290 | 4.0 | 5.0 | 0.00 | 0.38 | 0.38 | 59 | 1012.7 |
| 20260506160724 | 55 | 349 | 2.0 | 3.0 | 0.00 | 0.38 | 0.38 | 58 | 1013.3 |
| 20260506160220 | 54 | 285 | 1.0 | 2.0 | 0.00 | 0.38 | 0.38 | 61 | 1012.8 |
| 20260506155719 | 55 | 21 | 3.0 | 3.0 | 0.00 | 0.38 | 0.38 | 61 | 1012.9 |
| 20260506155216 | 55 | 5 | 3.0 | 7.0 | 0.00 | 0.38 | 0.38 | 61 | 1012.8 |
| 20260506153323 | 53 | 334 | 3.0 | 3.0 | 0.00 | 0.38 | 0.38 | 71 | 1012.6 |
| 20260506152820 | 53 | 341 | 5.0 | 5.0 | 0.00 | 0.38 | 0.38 | 68 | 1012.4 |
| 20260506152317 | 52 | 249 | 2.0 | 2.0 | 0.00 | 0.38 | 0.38 | 73 | 1012.3 |
| 20260506151816 | 53 | 307 | 2.0 | 2.0 | 0.00 | 0.38 | 0.38 | 76 | 1012.0 |
| 20260506151312 | 53 | 295 | 3.0 | 3.0 | 0.00 | 0.38 | 0.38 | 73 | 1012.2 |
| 20260506150809 | 52 | 271 | 4.0 | 5.0 | 0.00 | 0.38 | 0.38 | 75 | 1012.2 |
| 20260506150307 | 52 | 8 | 4.0 | 6.0 | 0.00 | 0.38 | 0.38 | 75 | 1011.9 |
| 20260506145803 | 51 | 285 | 4.0 | 5.0 | 0.00 | 0.38 | 0.38 | 78 | 1012.1 |
| 20260506145259 | 51 | 7 | 6.0 | 7.0 | 0.00 | 0.38 | 0.38 | 76 | 1012.0 |
| 20260506144757 | 51 | 357 | 3.0 | 3.0 | 0.00 | 0.38 | 0.38 | 78 | 1012.0 |
| 20260506144254 | 51 | 355 | 4.0 | 7.0 | 0.00 | 0.38 | 0.38 | 77 | 1011.9 |
| 20260506143752 | 50 | 307 | 3.0 | 2.0 | 0.00 | 0.38 | 0.38 | 78 | 1012.2 |
| 20260506143249 | 51 | 290 | 3.0 | 3.0 | 0.00 | 0.38 | 0.38 | 77 | 1012.0 |
| 20260506142747 | 50 | 351 | 1.0 | 1.0 | 0.00 | 0.38 | 0.38 | 80 | 1011.9 |
| 20260506142245 | 50 | 293 | 3.0 | 5.0 | 0.00 | 0.38 | 0.38 | 79 | 1012.0 |
| 20260506141743 | 50 | 285 | 4.0 | 6.0 | 0.00 | 0.38 | 0.38 | 77 | 1011.8 |
| 20260506141241 | 50 | 315 | 2.0 | 2.0 | 0.00 | 0.38 | 0.38 | 80 | 1011.7 |
| 20260506140738 | 49 | 288 | 2.0 | 2.0 | 0.00 | 0.38 | 0.38 | 81 | 1011.8 |
| 20260506140235 | 49 | 298 | 4.0 | 5.0 | 0.00 | 0.38 | 0.38 | 80 | 1012.0 |
| 20260506135732 | 49 | 2 | 2.0 | 2.0 | 0.00 | 0.38 | 0.38 | 84 | 1011.6 |
| 20260506135228 | 48 | 16 | 1.0 | 1.0 | 0.00 | 0.38 | 0.38 | 84 | 1011.8 |
| 20260506134725 | 48 | 273 | 3.0 | 3.0 | 0.00 | 0.38 | 0.38 | 84 | 1011.8 |
| 20260506134221 | 48 | 308 | 1.0 | 2.0 | 0.00 | 0.38 | 0.38 | 86 | 1011.9 |
| 20260506133719 | 48 | 332 | 3.0 | 3.0 | 0.00 | 0.38 | 0.38 | 86 | 1011.7 |
| 20260506133215 | 48 | 350 | 1.0 | 1.0 | 0.00 | 0.38 | 0.38 | 89 | 1011.8 |
| 20260506132712 | 48 | 281 | 1.0 | 1.0 | 0.00 | 0.38 | 0.38 | 89 | 1011.7 |
| 20260506132209 | 47 | 338 | 0.0 | 0.0 | 0.00 | 0.38 | 0.38 | 91 | 1011.7 |
| 20260506131707 | 47 | 346 | 3.0 | 5.0 | 0.00 | 0.38 | 0.38 | 91 | 1011.5 |
| 20260506131203 | 48 | 326 | 2.0 | 2.0 | 0.00 | 0.38 | 0.38 | 92 | 1011.4 |
| 20260506130700 | 47 | 351 | 1.0 | 1.0 | 0.00 | 0.38 | 0.38 | 92 | 1011.4 |
| 20260506130157 | 47 | 344 | 2.0 | 2.0 | 0.00 | 0.38 | 0.38 | 93 | 1011.2 |
| 20260506125655 | 47 | 24 | 0.0 | 0.0 | 0.00 | 0.38 | 0.38 | 93 | 1011.6 |
| 20260506125153 | 47 | 11 | 0.0 | 0.0 | 0.00 | 0.38 | 0.38 | 94 | 1011.0 |
| 20260506124650 | 47 | 4 | 0.0 | 0.0 | 0.00 | 0.38 | 0.38 | 94 | 1010.8 |
| 20260506124148 | 47 | 308 | 1.0 | 1.0 | 0.00 | 0.38 | 0.38 | 94 | 1010.7 |
| 20260506123645 | 47 | 319 | 2.0 | 2.0 | 0.00 | 0.38 | 0.38 | 96 | 1010.8 |
| 20260506123144 | 46 | 344 | 1.0 | 1.0 | 0.00 | 0.38 | 0.38 | 96 | 1010.9 |
| 20260506122640 | 46 | 306 | 2.0 | 2.0 | 0.00 | 0.38 | 0.38 | 96 | 1010.9 |
| 20260506122138 | 46 | 313 | 0.0 | 0.0 | 0.00 | 0.38 | 0.38 | 97 | 1010.9 |
| 20260506121635 | 46 | 301 | 3.0 | 2.0 | 0.00 | 0.38 | 0.38 | 96 | 1011.1 |
| 20260506121131 | 45 | 307 | 1.0 | 1.0 | 0.00 | 0.38 | 0.38 | 97 | 1010.9 |
| 20260506120630 | 45 | 302 | 1.0 | 1.0 | 0.00 | 0.38 | 0.38 | 97 | 1010.9 |
| 20260506120127 | 45 | 294 | 0.0 | 0.0 | 0.00 | 0.38 | 0.38 | 97 | 1010.8 |
| 20260506115625 | 45 | 293 | 0.0 | 0.0 | 0.00 | 0.38 | 0.38 | 97 | 1010.5 |
| 20260506115123 | 45 | 357 | 1.0 | 1.0 | 0.00 | 0.38 | 0.38 | 97 | 1010.7 |
| 20260506114620 | 45 | 313 | 0.0 | 0.0 | 0.00 | 0.38 | 0.38 | 97 | 1010.7 |
| 20260506114118 | 45 | 312 | 0.0 | 0.0 | 0.00 | 0.38 | 0.38 | 97 | 1010.5 |
| 20260506113616 | 45 | 312 | 0.0 | 0.0 | 0.00 | 0.38 | 0.38 | 97 | 1010.3 |
| 20260506113113 | 45 | 312 | 0.0 | 0.0 | 0.00 | 0.38 | 0.38 | 97 | 1010.5 |
| 20260506112609 | 45 | 312 | 1.0 | 1.0 | 0.00 | 0.38 | 0.38 | 97 | 1010.5 |
| 20260506112107 | 45 | 312 | 0.0 | 0.0 | 0.00 | 0.38 | 0.38 | 97 | 1010.4 |
| 20260506111604 | 44 | 312 | 1.0 | 1.0 | 0.00 | 0.38 | 0.38 | 97 | 1010.6 |
| 20260506111102 | 44 | 267 | 0.0 | 0.0 | 0.00 | 0.38 | 0.38 | 97 | 1010.1 |
| 20260506110559 | 44 | 267 | 0.0 | 0.0 | 0.00 | 0.38 | 0.38 | 97 | 1010.1 |
| 20260506110056 | 44 | 296 | 0.0 | 0.0 | 0.00 | 0.38 | 0.38 | 97 | 1010.3 |
| 20260506105553 | 44 | 290 | 2.0 | 2.0 | 0.00 | 0.38 | 0.38 | 97 | 1009.9 |
| 20260506105050 | 44 | 18 | 1.0 | 1.0 | 0.00 | 0.38 | 0.38 | 97 | 1009.5 |
| 20260506104548 | 44 | 354 | 0.0 | 0.0 | 0.00 | 0.38 | 0.38 | 97 | 1009.6 |
| 20260506104045 | 44 | 301 | 2.0 | 2.0 | 0.00 | 0.38 | 0.38 | 97 | 1009.9 |
| 20260506103542 | 44 | 339 | 1.0 | 1.0 | 0.00 | 0.38 | 0.38 | 97 | 1009.6 |
| 20260506103039 | 44 | 302 | 2.0 | 2.0 | 0.00 | 0.38 | 0.38 | 97 | 1009.7 |
| 20260506102538 | 44 | 332 | 1.0 | 1.0 | 0.00 | 0.38 | 0.38 | 97 | 1009.7 |
| 20260506102035 | 44 | 317 | 1.0 | 1.0 | 0.00 | 0.38 | 0.38 | 97 | 1009.4 |
| 20260506101531 | 44 | 342 | 1.0 | 1.0 | 0.00 | 0.38 | 0.38 | 97 | 1009.0 |
| 20260506101028 | 44 | 32 | 0.0 | 0.0 | 0.00 | 0.38 | 0.38 | 97 | 1008.9 |
| 20260506100526 | 44 | 39 | 0.0 | 0.0 | 0.00 | 0.38 | 0.38 | 97 | 1009.0 |
| 20260506100024 | 44 | 53 | 1.0 | 1.0 | 0.00 | 0.38 | 0.38 | 97 | 1008.5 |
| 20260506095523 | 45 | 78 | 0.0 | 0.0 | 0.00 | 0.38 | 0.38 | 97 | 1008.8 |
| 20260506095018 | 45 | 77 | 0.0 | 0.0 | 0.00 | 0.38 | 0.38 | 97 | 1008.9 |
| 20260506094517 | 45 | 9 | 1.0 | 1.0 | 0.05 | 0.38 | 0.38 | 97 | 1009.2 |
| 20260506094014 | 45 | 323 | 3.0 | 3.0 | 0.05 | 0.38 | 0.38 | 97 | 1009.3 |
| 20260506093513 | 45 | 313 | 6.0 | 9.0 | 0.00 | 0.37 | 0.37 | 97 | 1009.9 |
| 20260506093010 | 45 | 295 | 3.0 | 3.0 | 0.07 | 0.37 | 0.37 | 97 | 1010.0 |
| 20260506092508 | 46 | 333 | 1.0 | 2.0 | 0.12 | 0.37 | 0.37 | 97 | 1010.0 |
| 20260506092004 | 45 | 315 | 4.0 | 5.0 | 0.05 | 0.36 | 0.36 | 97 | 1010.0 |
| 20260506091502 | 45 | 334 | 2.0 | 2.0 | 0.12 | 0.36 | 0.36 | 97 | 1009.9 |
| 20260506090959 | 45 | 306 | 1.0 | 1.0 | 0.07 | 0.35 | 0.35 | 97 | 1009.6 |
| 20260506090457 | 45 | 312 | 0.0 | 0.0 | 0.05 | 0.34 | 0.34 | 97 | 1009.3 |
| 20260506085953 | 45 | 312 | 1.0 | 1.0 | 0.05 | 0.34 | 0.34 | 97 | 1009.5 |
| 20260506085450 | 45 | 306 | 0.0 | 1.0 | 0.00 | 0.33 | 0.33 | 97 | 1009.5 |
| 20260506084946 | 45 | 303 | 0.0 | 0.0 | 0.00 | 0.33 | 0.33 | 97 | 1009.7 |
| 20260506084443 | 45 | 296 | 2.0 | 2.0 | 0.00 | 0.33 | 0.33 | 97 | 1009.2 |
| 20260506083939 | 45 | 339 | 0.0 | 0.0 | 0.00 | 0.33 | 0.33 | 97 | 1009.1 |
| 20260506083437 | 45 | 339 | 1.0 | 1.0 | 0.00 | 0.33 | 0.33 | 97 | 1009.4 |
| 20260506082934 | 45 | 341 | 0.0 | 0.0 | 0.07 | 0.33 | 0.33 | 97 | 1009.1 |
| 20260506082431 | 45 | 315 | 0.0 | 0.0 | 0.12 | 0.33 | 0.33 | 97 | 1009.3 |
| 20260506081926 | 45 | 319 | 0.0 | 0.0 | 0.05 | 0.32 | 0.32 | 97 | 1009.5 |
| 20260506081425 | 45 | 318 | 1.0 | 1.0 | 0.05 | 0.32 | 0.32 | 97 | 1009.5 |
| 20260506080922 | 45 | 304 | 1.0 | 1.0 | 0.07 | 0.31 | 0.31 | 97 | 1009.6 |
| 20260506080419 | 45 | 311 | 1.0 | 1.0 | 0.12 | 0.31 | 0.31 | 97 | 1009.6 |
| 20260506073403 | 46 | 331 | 2.0 | 2.0 | 0.05 | 0.27 | 0.27 | 97 | 1009.5 |
| 20260506072900 | 46 | 313 | 2.0 | 2.0 | 0.07 | 0.26 | 0.26 | 97 | 1009.6 |
| 20260506072357 | 46 | 337 | 1.0 | 1.0 | 0.07 | 0.26 | 0.26 | 97 | 1009.1 |
| 20260506071855 | 46 | 347 | 3.0 | 3.0 | 0.05 | 0.25 | 0.25 | 97 | 1009.1 |
| 20260506071353 | 46 | 333 | 0.0 | 0.0 | 0.12 | 0.25 | 0.25 | 97 | 1008.9 |
| 20260506070849 | 46 | 310 | 1.0 | 1.0 | 0.07 | 0.24 | 0.24 | 97 | 1009.0 |
| 20260506070346 | 46 | 307 | 1.0 | 1.0 | 0.05 | 0.23 | 0.23 | 97 | 1009.2 |
| 20260506062323 | 46 | 314 | 0.0 | 0.0 | 0.00 | 0.19 | 0.19 | 96 | 1009.3 |
| 20260506061819 | 46 | 319 | 1.0 | 1.0 | 0.05 | 0.19 | 0.19 | 96 | 1009.5 |
| 20260506061316 | 46 | 334 | 0.0 | 1.0 | 0.05 | 0.19 | 0.19 | 96 | 1009.3 |
| 20260506060814 | 46 | 334 | 0.0 | 0.0 | 0.07 | 0.18 | 0.18 | 96 | 1009.4 |
| 20260506060312 | 46 | 334 | 0.0 | 0.0 | 0.12 | 0.18 | 0.18 | 96 | 1009.4 |
| 20260506051244 | 46 | 38 | 0.0 | 0.0 | 0.05 | 0.06 | 0.06 | 96 | 1009.9 |
| 20260506050742 | 46 | 31 | 1.0 | 1.0 | 0.00 | 0.05 | 0.05 | 96 | 1009.6 |
| 20260506050239 | 46 | 341 | 0.0 | 0.0 | 0.07 | 0.05 | 0.05 | 96 | 1009.7 |
| 20260506044730 | 47 | 342 | 1.0 | 1.0 | 0.05 | 0.04 | 0.04 | 96 | 1009.9 |
| 20260506044227 | 47 | 315 | 0.0 | 0.0 | 0.05 | 0.04 | 0.04 | 96 | 1009.9 |
| 20260506043724 | 47 | 328 | 0.0 | 0.0 | 0.07 | 0.03 | 0.03 | 97 | 1010.0 |
| 20260506043221 | 47 | 2 | 0.0 | 0.0 | 0.07 | 0.03 | 0.03 | 96 | 1010.3 |
| 20260506042720 | 47 | 12 | 0.0 | 0.0 | 0.00 | 0.02 | 0.02 | 97 | 1010.1 |
| 20260506042218 | 47 | 45 | 1.0 | 1.0 | 0.00 | 0.02 | 0.02 | 97 | 1010.1 |
| 20260506041716 | 48 | 1 | 0.0 | 0.0 | 0.07 | 0.02 | 0.02 | 97 | 1010.2 |
| 20260506041213 | 48 | 339 | 1.0 | 2.0 | 0.12 | 0.02 | 0.02 | 97 | 1010.2 |
| 20260506040710 | 48 | 325 | 2.0 | 2.0 | 0.12 | 0.01 | 0.01 | 97 | 1010.4 |
| 20260506040207 | 48 | 347 | 0.0 | 0.0 | 0.12 | 0.01 | 0.01 | 97 | 1010.4 |
| 20260506035704 | 48 | 7 | 0.0 | 0.0 | 0.12 | 1.11 | 1.11 | 97 | 1010.5 |
| 20260506035201 | 48 | 6 | 1.0 | 1.0 | 0.12 | 1.10 | 1.10 | 97 | 1010.3 |
| 20260506034657 | 48 | 274 | 1.0 | 1.0 | 0.12 | 1.09 | 1.09 | 97 | 1010.6 |
| 20260506034155 | 48 | 306 | 1.0 | 1.0 | 0.12 | 1.08 | 1.08 | 97 | 1010.4 |
| 20260506033652 | 48 | 301 | 1.0 | 1.0 | 0.12 | 1.07 | 1.07 | 97 | 1010.7 |
| 20260506033149 | 48 | 300 | 1.0 | 1.0 | 0.12 | 1.06 | 1.06 | 97 | 1010.7 |
| 20260506032646 | 48 | 300 | 2.0 | 2.0 | 0.12 | 1.05 | 1.05 | 97 | 1010.7 |
| 20260506032143 | 48 | 306 | 1.0 | 1.0 | 0.12 | 1.04 | 1.04 | 97 | 1010.6 |
| 20260506031640 | 48 | 306 | 0.0 | 0.0 | 0.07 | 1.03 | 1.03 | 97 | 1010.6 |
| 20260506031137 | 49 | 306 | 0.0 | 0.0 | 0.14 | 1.03 | 1.03 | 97 | 1010.7 |
| 20260506030636 | 49 | 307 | 0.0 | 0.0 | 0.12 | 1.02 | 1.02 | 97 | 1010.8 |
| 20260506030132 | 49 | 306 | 0.0 | 0.0 | 0.12 | 1.01 | 1.01 | 97 | 1010.8 |
| 20260506025629 | 49 | 310 | 1.0 | 1.0 | 0.19 | 1.00 | 1.00 | 97 | 1010.9 |
| 20260506025125 | 49 | 319 | 0.0 | 0.0 | 0.17 | 0.99 | 0.99 | 97 | 1011.0 |
| 20260506024623 | 49 | 319 | 0.0 | 0.0 | 0.12 | 0.97 | 0.97 | 97 | 1010.8 |
| 20260506024119 | 49 | 324 | 0.0 | 0.0 | 0.19 | 0.96 | 0.96 | 97 | 1010.7 |
| 20260506023615 | 49 | 241 | 0.0 | 0.0 | 0.24 | 0.95 | 0.95 | 97 | 1010.4 |
| 20260506023113 | 49 | 238 | 0.0 | 0.0 | 0.31 | 0.94 | 0.94 | 97 | 1010.6 |
| 20260506022610 | 49 | 154 | 0.0 | 0.0 | 0.26 | 0.92 | 0.92 | 97 | 1010.3 |